[{"OBJECT_NAME":"DMSP 5D-3 F16 (USA 172)","OBJECT_ID":"2003-048A","EPOCH":"2026-09-12T04:10:33.283776","MEAN_MOTION":14.14490192,"ECCENTRICITY":0.0005964,"INCLINATION":98.9867,"RA_OF_ASC_NODE":279.5673,"ARG_OF_PERICENTER":259.1763,"MEAN_ANOMALY":180.4917,"EPHEMERIS_TYPE":0,"CLASSIFICATION_TYPE":"U","NORAD_CAT_ID":28054,"ELEMENT_SET_NO":999,"REV_AT_EPOCH":18178,"BSTAR":0.0000356,"MEAN_MOTION_DOT":2.3e-7,"MEAN_MOTION_DDOT":0},{"OBJECT_NAME":"METEOSAT-9 (MSG-2)","OBJECT_ID":"2005-049B","EPOCH":"2026-09-12T02:08:49.413120","MEAN_MOTION":1.002736,"ECCENTRICITY":0.0001893,"INCLINATION":9.5547,"RA_OF_ASC_NODE":53.2842,"ARG_OF_PERICENTER":347.3065,"MEAN_ANOMALY":28.4077,"EPHEMERIS_TYPE":0,"CLASSIFICATION_TYPE":"U","NORAD_CAT_ID":28912,"ELEMENT_SET_NO":999,"REV_AT_EPOCH":787,"BSTAR":0,"MEAN_MOTION_DOT":0.00000113,"MEAN_MOTION_DDOT":0},{"OBJECT_NAME":"DMSP 5D-3 F17 (USA 191)","OBJECT_ID":"2006-050A","EPOCH":"2026-09-12T05:09:35.587008","MEAN_MOTION":14.15006855,"ECCENTRICITY":0.001037,"INCLINATION":98.7424,"RA_OF_ASC_NODE":260.0214,"ARG_OF_PERICENTER":161.2644,"MEAN_ANOMALY":198.8913,"EPHEMERIS_TYPE":0,"CLASSIFICATION_TYPE":"U","NORAD_CAT_ID":29522,"ELEMENT_SET_NO":999,"REV_AT_EPOCH":2473,"BSTAR":0.000065474,"MEAN_MOTION_DOT":8.3e-7,"MEAN_MOTION_DDOT":0},{"OBJECT_NAME":"FENGYUN 3A","OBJECT_ID":"2008-026A","EPOCH":"2026-09-11T19:29:20.726016","MEAN_MOTION":14.19586278,"ECCENTRICITY":0.000771,"INCLINATION":98.6928,"RA_OF_ASC_NODE":194.0393,"ARG_OF_PERICENTER":235.0648,"MEAN_ANOMALY":124.9804,"EPHEMERIS_TYPE":0,"CLASSIFICATION_TYPE":"U","NORAD_CAT_ID":32958,"ELEMENT_SET_NO":999,"REV_AT_EPOCH":94769,"BSTAR":0.000039642,"MEAN_MOTION_DOT":4e-7,"MEAN_MOTION_DDOT":0},{"OBJECT_NAME":"EWS-G3 (GOES 14)","OBJECT_ID":"2009-033A","EPOCH":"2026-09-12T03:21:45.731232","MEAN_MOTION":1.00071615,"ECCENTRICITY":0.0002117,"INCLINATION":1.9086,"RA_OF_ASC_NODE":81.8193,"ARG_OF_PERICENTER":90.4866,"MEAN_ANOMALY":314.3714,"EPHEMERIS_TYPE":0,"CLASSIFICATION_TYPE":"U","NORAD_CAT_ID":35491,"ELEMENT_SET_NO":999,"REV_AT_EPOCH":746,"BSTAR":0,"MEAN_MOTION_DOT":-0.00000154,"MEAN_MOTION_DDOT":0},{"OBJECT_NAME":"DMSP 5D-3 F18 (USA 210)","OBJECT_ID":"2009-057A","EPOCH":"2026-09-12T04:35:07.187424","MEAN_MOTION":14.14940159,"ECCENTRICITY":0.0011357,"INCLINATION":98.9142,"RA_OF_ASC_NODE":235.8119,"ARG_OF_PERICENTER":10.1138,"MEAN_ANOMALY":350.0261,"EPHEMERIS_TYPE":0,"CLASSIFICATION_TYPE":"U","NORAD_CAT_ID":35951,"ELEMENT_SET_NO":999,"REV_AT_EPOCH":87189,"BSTAR":0.00010397,"MEAN_MOTION_DOT":0.00000156,"MEAN_MOTION_DDOT":0},{"OBJECT_NAME":"EWS-G2 (GOES 15)","OBJECT_ID":"2010-008A","EPOCH":"2026-09-12T03:56:31.586208","MEAN_MOTION":1.00271451,"ECCENTRICITY":0.0005151,"INCLINATION":1.5126,"RA_OF_ASC_NODE":81.8555,"ARG_OF_PERICENTER":80.3249,"MEAN_ANOMALY":311.4374,"EPHEMERIS_TYPE":0,"CLASSIFICATION_TYPE":"U","NORAD_CAT_ID":36411,"ELEMENT_SET_NO":999,"REV_AT_EPOCH":6051,"BSTAR":0,"MEAN_MOTION_DOT":8e-8,"MEAN_MOTION_DDOT":0},{"OBJECT_NAME":"FENGYUN 3B","OBJECT_ID":"2010-059A","EPOCH":"2026-09-12T05:17:06.259776","MEAN_MOTION":14.14855898,"ECCENTRICITY":0.0021192,"INCLINATION":98.9547,"RA_OF_ASC_NODE":301.5707,"ARG_OF_PERICENTER":301.7554,"MEAN_ANOMALY":138.2458,"EPHEMERIS_TYPE":0,"CLASSIFICATION_TYPE":"U","NORAD_CAT_ID":37214,"ELEMENT_SET_NO":999,"REV_AT_EPOCH":81973,"BSTAR":0.0000081524,"MEAN_MOTION_DOT":-3e-7,"MEAN_MOTION_DDOT":0},{"OBJECT_NAME":"SUOMI NPP","OBJECT_ID":"2011-061A","EPOCH":"2026-09-12T04:17:38.063328","MEAN_MOTION":14.19532645,"ECCENTRICITY":0.0002845,"INCLINATION":98.7999,"RA_OF_ASC_NODE":195.476,"ARG_OF_PERICENTER":79.2183,"MEAN_ANOMALY":280.9313,"EPHEMERIS_TYPE":0,"CLASSIFICATION_TYPE":"U","NORAD_CAT_ID":37849,"ELEMENT_SET_NO":999,"REV_AT_EPOCH":77078,"BSTAR":0.000037318,"MEAN_MOTION_DOT":3.4e-7,"MEAN_MOTION_DDOT":0},{"OBJECT_NAME":"METEOSAT-10 (MSG-3)","OBJECT_ID":"2012-035B","EPOCH":"2026-09-12T03:38:25.819872","MEAN_MOTION":1.00270644,"ECCENTRICITY":0.0000824,"INCLINATION":4.8735,"RA_OF_ASC_NODE":60.5326,"ARG_OF_PERICENTER":105.1811,"MEAN_ANOMALY":240.1295,"EPHEMERIS_TYPE":0,"CLASSIFICATION_TYPE":"U","NORAD_CAT_ID":38552,"ELEMENT_SET_NO":999,"REV_AT_EPOCH":5172,"BSTAR":0,"MEAN_MOTION_DOT":-1.9e-7,"MEAN_MOTION_DDOT":0},{"OBJECT_NAME":"METOP-B","OBJECT_ID":"2012-049A","EPOCH":"2026-09-12T04:36:55.573632","MEAN_MOTION":14.2145857,"ECCENTRICITY":0.0003456,"INCLINATION":98.6421,"RA_OF_ASC_NODE":304.9206,"ARG_OF_PERICENTER":95.4847,"MEAN_ANOMALY":264.6725,"EPHEMERIS_TYPE":0,"CLASSIFICATION_TYPE":"U","NORAD_CAT_ID":38771,"ELEMENT_SET_NO":999,"REV_AT_EPOCH":72562,"BSTAR":0.00004916,"MEAN_MOTION_DOT":6.4e-7,"MEAN_MOTION_DDOT":0},{"OBJECT_NAME":"INSAT-3D","OBJECT_ID":"2013-038B","EPOCH":"2026-09-11T23:28:38.520768","MEAN_MOTION":1.00273038,"ECCENTRICITY":0.00013,"INCLINATION":2.144,"RA_OF_ASC_NODE":81.3515,"ARG_OF_PERICENTER":111.9148,"MEAN_ANOMALY":279.4075,"EPHEMERIS_TYPE":0,"CLASSIFICATION_TYPE":"U","NORAD_CAT_ID":39216,"ELEMENT_SET_NO":999,"REV_AT_EPOCH":4795,"BSTAR":0,"MEAN_MOTION_DOT":-0.00000353,"MEAN_MOTION_DDOT":0},{"OBJECT_NAME":"FENGYUN 3C","OBJECT_ID":"2013-052A","EPOCH":"2026-09-12T04:24:44.309088","MEAN_MOTION":14.15771129,"ECCENTRICITY":0.0015483,"INCLINATION":98.5094,"RA_OF_ASC_NODE":225.107,"ARG_OF_PERICENTER":129.9057,"MEAN_ANOMALY":230.3481,"EPHEMERIS_TYPE":0,"CLASSIFICATION_TYPE":"U","NORAD_CAT_ID":39260,"ELEMENT_SET_NO":999,"REV_AT_EPOCH":67087,"BSTAR":0.000044586,"MEAN_MOTION_DOT":4.6e-7,"MEAN_MOTION_DDOT":0},{"OBJECT_NAME":"METEOR-M 2","OBJECT_ID":"2014-037A","EPOCH":"2026-09-12T05:13:05.642688","MEAN_MOTION":14.21481948,"ECCENTRICITY":0.0006408,"INCLINATION":98.5218,"RA_OF_ASC_NODE":227.9168,"ARG_OF_PERICENTER":134.3137,"MEAN_ANOMALY":225.8568,"EPHEMERIS_TYPE":0,"CLASSIFICATION_TYPE":"U","NORAD_CAT_ID":40069,"ELEMENT_SET_NO":999,"REV_AT_EPOCH":63168,"BSTAR":-0.000063342,"MEAN_MOTION_DOT":-0.00000181,"MEAN_MOTION_DDOT":0},{"OBJECT_NAME":"HIMAWARI-8","OBJECT_ID":"2014-060A","EPOCH":"2026-09-12T04:18:21.990816","MEAN_MOTION":1.00272128,"ECCENTRICITY":0.0001162,"INCLINATION":0.0195,"RA_OF_ASC_NODE":68.9053,"ARG_OF_PERICENTER":130.7391,"MEAN_ANOMALY":356.8167,"EPHEMERIS_TYPE":0,"CLASSIFICATION_TYPE":"U","NORAD_CAT_ID":40267,"ELEMENT_SET_NO":999,"REV_AT_EPOCH":4363,"BSTAR":0,"MEAN_MOTION_DOT":-0.0000029,"MEAN_MOTION_DDOT":0},{"OBJECT_NAME":"FENGYUN 2G","OBJECT_ID":"2014-090A","EPOCH":"2026-09-12T00:41:35.278656","MEAN_MOTION":1.00274569,"ECCENTRICITY":0.0003991,"INCLINATION":5.853,"RA_OF_ASC_NODE":71.7256,"ARG_OF_PERICENTER":186.8963,"MEAN_ANOMALY":202.5503,"EPHEMERIS_TYPE":0,"CLASSIFICATION_TYPE":"U","NORAD_CAT_ID":40367,"ELEMENT_SET_NO":999,"REV_AT_EPOCH":4287,"BSTAR":0,"MEAN_MOTION_DOT":-0.00000315,"MEAN_MOTION_DDOT":0},{"OBJECT_NAME":"METEOSAT-11 (MSG-4)","OBJECT_ID":"2015-034A","EPOCH":"2026-09-12T03:41:03.068736","MEAN_MOTION":1.00272216,"ECCENTRICITY":0.0000645,"INCLINATION":3.4136,"RA_OF_ASC_NODE":70.4793,"ARG_OF_PERICENTER":71.3267,"MEAN_ANOMALY":273.8616,"EPHEMERIS_TYPE":0,"CLASSIFICATION_TYPE":"U","NORAD_CAT_ID":40732,"ELEMENT_SET_NO":999,"REV_AT_EPOCH":808,"BSTAR":0,"MEAN_MOTION_DOT":4.8e-7,"MEAN_MOTION_DDOT":0},{"OBJECT_NAME":"ELEKTRO-L 2","OBJECT_ID":"2015-074A","EPOCH":"2026-09-11T19:01:02.292096","MEAN_MOTION":1.0027196,"ECCENTRICITY":0.00018482,"INCLINATION":6.9066,"RA_OF_ASC_NODE":69.4247,"ARG_OF_PERICENTER":195.4832,"MEAN_ANOMALY":356.6388,"EPHEMERIS_TYPE":0,"CLASSIFICATION_TYPE":"U","NORAD_CAT_ID":41105,"ELEMENT_SET_NO":999,"REV_AT_EPOCH":3937,"BSTAR":0,"MEAN_MOTION_DOT":-0.0000013,"MEAN_MOTION_DDOT":0},{"OBJECT_NAME":"SENTINEL-3A","OBJECT_ID":"2016-011A","EPOCH":"2026-09-12T04:15:42.924096","MEAN_MOTION":14.26734404,"ECCENTRICITY":0.0001093,"INCLINATION":98.6288,"RA_OF_ASC_NODE":321.2991,"ARG_OF_PERICENTER":105.8058,"MEAN_ANOMALY":254.3243,"EPHEMERIS_TYPE":0,"CLASSIFICATION_TYPE":"U","NORAD_CAT_ID":41335,"ELEMENT_SET_NO":999,"REV_AT_EPOCH":55046,"BSTAR":0.00004228,"MEAN_MOTION_DOT":5.9e-7,"MEAN_MOTION_DDOT":0},{"OBJECT_NAME":"INSAT-3DR","OBJECT_ID":"2016-054A","EPOCH":"2026-09-12T03:32:21.719904","MEAN_MOTION":1.00272231,"ECCENTRICITY":0.0011669,"INCLINATION":0.0257,"RA_OF_ASC_NODE":109.2023,"ARG_OF_PERICENTER":155.5973,"MEAN_ANOMALY":213.466,"EPHEMERIS_TYPE":0,"CLASSIFICATION_TYPE":"U","NORAD_CAT_ID":41752,"ELEMENT_SET_NO":999,"REV_AT_EPOCH":3669,"BSTAR":0,"MEAN_MOTION_DOT":-9.2e-7,"MEAN_MOTION_DDOT":0},{"OBJECT_NAME":"HIMAWARI-9","OBJECT_ID":"2016-064A","EPOCH":"2026-09-12T04:18:29.479104","MEAN_MOTION":1.00275042,"ECCENTRICITY":0.0001074,"INCLINATION":0.0329,"RA_OF_ASC_NODE":276.1268,"ARG_OF_PERICENTER":275.9331,"MEAN_ANOMALY":4.4996,"EPHEMERIS_TYPE":0,"CLASSIFICATION_TYPE":"U","NORAD_CAT_ID":41836,"ELEMENT_SET_NO":999,"REV_AT_EPOCH":3608,"BSTAR":0,"MEAN_MOTION_DOT":-0.00000289,"MEAN_MOTION_DDOT":0},{"OBJECT_NAME":"GOES 16","OBJECT_ID":"2016-071A","EPOCH":"2026-09-12T03:08:36.181248","MEAN_MOTION":1.00272447,"ECCENTRICITY":0.0001698,"INCLINATION":0.5504,"RA_OF_ASC_NODE":84.5825,"ARG_OF_PERICENTER":131.2749,"MEAN_ANOMALY":77.7617,"EPHEMERIS_TYPE":0,"CLASSIFICATION_TYPE":"U","NORAD_CAT_ID":41866,"ELEMENT_SET_NO":999,"REV_AT_EPOCH":3597,"BSTAR":0,"MEAN_MOTION_DOT":-0.00000106,"MEAN_MOTION_DDOT":0},{"OBJECT_NAME":"FENGYUN 4A","OBJECT_ID":"2016-077A","EPOCH":"2026-09-11T23:05:36.981312","MEAN_MOTION":1.00268142,"ECCENTRICITY":0.0008054,"INCLINATION":2.5366,"RA_OF_ASC_NODE":79.179,"ARG_OF_PERICENTER":166.6121,"MEAN_ANOMALY":214.7728,"EPHEMERIS_TYPE":0,"CLASSIFICATION_TYPE":"U","NORAD_CAT_ID":41882,"ELEMENT_SET_NO":999,"REV_AT_EPOCH":3580,"BSTAR":0,"MEAN_MOTION_DOT":-0.00000372,"MEAN_MOTION_DDOT":0},{"OBJECT_NAME":"CYGFM05","OBJECT_ID":"2016-078A","EPOCH":"2026-09-11T18:44:22.749504","MEAN_MOTION":15.60430546,"ECCENTRICITY":0.00055592,"INCLINATION":34.9565,"RA_OF_ASC_NODE":45.5674,"ARG_OF_PERICENTER":265.2157,"MEAN_ANOMALY":94.7933,"EPHEMERIS_TYPE":0,"CLASSIFICATION_TYPE":"U","NORAD_CAT_ID":41884,"ELEMENT_SET_NO":999,"REV_AT_EPOCH":54227,"BSTAR":0.00027992439,"MEAN_MOTION_DOT":0.00023824,"MEAN_MOTION_DDOT":0}]